Time,TemperatureF,DewpointF,PressureIn,WindDirection,WindDirectionDegrees,WindSpeedMPH,WindSpeedGustMPH,Humidity,HourlyPrecipIn,Conditions,Clouds,dailyrainin,SoftwareType,DateUTC
2013-02-18 00:00:00,30.2,13.8,30.29,WSW,245,0.0,0.0,50,0.00,CLR,,0.01,WeatherDisplay:10.37,2013-02-18 05:00:00,
2013-02-18 00:05:00,30.0,13.1,30.29,WSW,246,0.0,0.0,49,0.00,RA,,0.00,WeatherDisplay:10.37,2013-02-18 05:05:00,
2013-02-18 00:10:00,29.8,13.4,30.29,WSW,246,0.0,0.0,50,0.00,RA,,0.00,WeatherDisplay:10.37,2013-02-18 05:10:00,
2013-02-18 00:15:00,29.7,13.3,30.29,WSW,245,0.0,0.0,50,0.00,CLR,,0.00,WeatherDisplay:10.37,2013-02-18 05:15:00,
2013-02-18 00:20:00,29.6,13.2,30.29,WSW,245,0.0,0.0,50,0.00,CLR,,0.00,WeatherDisplay:10.37,2013-02-18 05:20:00,
2013-02-18 00:25:00,29.6,13.7,30.29,WSW,245,0.0,0.0,51,0.00,CLR,,0.00,WeatherDisplay:10.37,2013-02-18 05:25:00,
2013-02-18 00:30:00,29.4,13.5,30.29,WSW,246,0.0,0.0,51,0.00,CLR,,0.00,WeatherDisplay:10.37,2013-02-18 05:30:00,
2013-02-18 00:35:00,29.4,13.5,30.30,WSW,246,0.0,0.0,51,0.00,CLR,,0.00,WeatherDisplay:10.37,2013-02-18 05:35:00,
2013-02-18 00:40:00,29.4,13.5,30.30,WSW,246,3.5,3.5,51,0.00,CLR,,0.00,WeatherDisplay:10.37,2013-02-18 05:40:00,
2013-02-18 00:45:00,29.6,13.7,30.30,WSW,246,0.0,0.0,51,0.00,CLR,,0.00,WeatherDisplay:10.37,2013-02-18 05:45:00,
2013-02-18 00:50:00,29.6,13.7,30.30,WSW,246,0.0,0.0,51,0.00,CLR,,0.00,WeatherDisplay:10.37,2013-02-18 05:50:00,
2013-02-18 00:55:00,29.4,13.5,30.29,WSW,246,0.0,0.0,51,0.00,CLR,,0.00,WeatherDisplay:10.37,2013-02-18 05:55:00,
2013-02-18 01:00:00,29.7,13.3,30.30,WSW,246,0.0,0.0,50,0.00,CLR,,0.00,WeatherDisplay:10.37,2013-02-18 06:00:00,
2013-02-18 01:05:00,29.6,12.8,30.30,WSW,246,0.0,0.0,49,0.00,CLR,,0.00,WeatherDisplay:10.37,2013-02-18 06:05:00,
2013-02-18 01:10:00,29.6,12.8,30.30,WSW,246,0.0,0.0,49,0.00,CLR,,0.00,WeatherDisplay:10.37,2013-02-18 06:10:00,
2013-02-18 01:15:00,29.6,12.8,30.30,WSW,246,0.0,0.0,49,0.00,CLR,,0.00,WeatherDisplay:10.37,2013-02-18 06:15:00,
2013-02-18 01:20:00,29.6,12.8,30.30,WSW,246,0.0,0.0,49,0.00,CLR,,0.00,WeatherDisplay:10.37,2013-02-18 06:20:00,
2013-02-18 01:25:00,29.6,12.8,30.30,WSW,246,0.0,0.0,49,0.00,CLR,,0.00,WeatherDisplay:10.37,2013-02-18 06:25:00,
2013-02-18 01:30:00,29.6,12.8,30.30,WSW,246,0.0,0.0,49,0.00,CLR,,0.00,WeatherDisplay:10.37,2013-02-18 06:30:00,
2013-02-18 01:35:00,29.3,12.5,30.31,WSW,246,0.0,0.0,49,0.00,CLR,,0.00,WeatherDisplay:10.37,2013-02-18 06:35:00,
2013-02-18 01:40:00,29.3,12.9,30.31,WSW,246,0.0,0.0,50,0.00,CLR,,0.00,WeatherDisplay:10.37,2013-02-18 06:40:00,
2013-02-18 01:45:00,29.4,13.0,30.31,WSW,246,0.0,0.0,50,0.00,CLR,,0.00,WeatherDisplay:10.37,2013-02-18 06:45:00,
2013-02-18 01:50:00,29.6,12.8,30.30,WSW,246,0.0,0.0,49,0.00,CLR,,0.00,WeatherDisplay:10.37,2013-02-18 06:50:00,
2013-02-18 01:55:00,29.4,13.0,30.31,WSW,245,0.0,0.0,50,0.00,CLR,,0.00,WeatherDisplay:10.37,2013-02-18 06:55:00,
2013-02-18 02:00:00,29.4,13.0,30.31,WSW,246,0.0,0.0,50,0.00,CLR,,0.00,WeatherDisplay:10.37,2013-02-18 07:00:00,
2013-02-18 02:05:00,29.6,12.8,30.30,WSW,246,0.0,0.0,49,0.00,CLR,,0.00,WeatherDisplay:10.37,2013-02-18 07:05:00,
2013-02-18 02:10:00,29.2,13.7,30.32,WSW,246,0.0,0.0,52,0.00,CLR,,0.00,WeatherDisplay:10.37,2013-02-18 07:10:00,
2013-02-18 02:15:00,29.1,13.6,30.32,WSW,245,0.0,0.0,52,0.00,CLR,,0.00,WeatherDisplay:10.37,2013-02-18 07:15:00,
2013-02-18 02:20:00,29.1,13.6,30.32,WSW,246,0.0,0.0,52,0.00,CLR,,0.00,WeatherDisplay:10.37,2013-02-18 07:20:00,
2013-02-18 02:25:00,28.4,15.5,30.32,WSW,246,0.0,0.0,58,0.00,CLR,,0.00,WeatherDisplay:10.37,2013-02-18 07:25:00,
2013-02-18 02:30:00,28.0,15.1,30.32,WSW,245,0.0,0.0,58,0.00,CLR,,0.00,WeatherDisplay:10.37,2013-02-18 07:30:00,
2013-02-18 02:35:00,27.7,14.0,30.32,WSW,246,0.0,0.0,56,0.00,CLR,,0.00,WeatherDisplay:10.37,2013-02-18 07:35:00,
2013-02-18 02:40:00,27.7,14.0,30.32,WSW,246,0.0,0.0,56,0.00,CLR,,0.00,WeatherDisplay:10.37,2013-02-18 07:40:00,
2013-02-18 02:45:00,27.5,13.0,30.32,WSW,246,0.0,0.0,54,0.00,CLR,,0.00,WeatherDisplay:10.37,2013-02-18 07:45:00,
2013-02-18 02:50:00,27.7,14.0,30.32,WSW,246,0.0,0.0,56,0.00,CLR,,0.00,WeatherDisplay:10.37,2013-02-18 07:50:00,
2013-02-18 02:55:00,27.5,13.8,30.32,WSW,246,0.0,0.0,56,0.00,CLR,,0.00,WeatherDisplay:10.37,2013-02-18 07:55:00,
2013-02-18 03:00:00,27.3,14.8,30.33,WSW,246,0.0,0.0,59,0.00,CLR,,0.00,WeatherDisplay:10.37,2013-02-18 08:00:00,
2013-02-18 03:05:00,27.1,13.9,30.33,WSW,245,0.0,0.0,57,0.00,CLR,,0.00,WeatherDisplay:10.37,2013-02-18 08:05:00,
2013-02-18 03:10:00,27.0,13.4,30.32,WSW,245,0.0,0.0,56,0.00,CLR,,0.00,WeatherDisplay:10.37,2013-02-18 08:10:00,
2013-02-18 03:15:00,27.0,13.4,30.32,WSW,246,0.0,0.0,56,0.00,CLR,,0.00,WeatherDisplay:10.37,2013-02-18 08:15:00,
2013-02-18 03:20:00,27.0,13.4,30.32,WSW,246,0.0,0.0,56,0.00,CLR,,0.00,WeatherDisplay:10.37,2013-02-18 08:20:00,
2013-02-18 03:25:00,27.0,13.4,30.32,WSW,246,0.0,0.0,56,0.00,CLR,,0.00,WeatherDisplay:10.37,2013-02-18 08:25:00,
2013-02-18 03:30:00,26.8,12.8,30.32,WSW,245,0.0,0.0,55,0.00,CLR,,0.00,WeatherDisplay:10.37,2013-02-18 08:30:00,
2013-02-18 03:35:00,26.9,12.9,30.32,WSW,246,0.0,0.0,55,0.00,CLR,,0.00,WeatherDisplay:10.37,2013-02-18 08:35:00,
2013-02-18 03:40:00,27.0,13.0,30.32,WSW,245,0.0,0.0,55,0.00,CLR,,0.00,WeatherDisplay:10.37,2013-02-18 08:40:00,
2013-02-18 03:45:00,27.2,12.7,30.32,WSW,246,0.0,0.0,54,0.00,CLR,,0.00,WeatherDisplay:10.37,2013-02-18 08:45:00,
2013-02-18 03:50:00,27.3,12.8,30.32,WSW,246,0.0,0.0,54,0.00,CLR,,0.00,WeatherDisplay:10.37,2013-02-18 08:50:00,
2013-02-18 03:55:00,27.4,13.3,30.33,WSW,246,0.0,0.0,55,0.00,CLR,,0.00,WeatherDisplay:10.37,2013-02-18 08:55:00,
2013-02-18 04:00:00,27.4,13.7,30.33,WSW,245,0.0,0.0,56,0.00,CLR,,0.00,WeatherDisplay:10.37,2013-02-18 09:00:00,
2013-02-18 04:05:00,27.0,13.4,30.32,WSW,246,0.0,0.0,56,0.00,CLR,,0.00,WeatherDisplay:10.37,2013-02-18 09:05:00,
2013-02-18 04:10:00,27.0,13.4,30.32,WSW,246,0.0,0.0,56,0.00,CLR,,0.00,WeatherDisplay:10.37,2013-02-18 09:10:00,
2013-02-18 04:15:00,27.2,13.6,30.33,WSW,246,0.0,0.0,56,0.00,CLR,,0.00,WeatherDisplay:10.37,2013-02-18 09:15:00,
2013-02-18 04:20:00,27.0,13.4,30.32,WSW,246,0.0,0.0,56,0.00,CLR,,0.00,WeatherDisplay:10.37,2013-02-18 09:20:00,
2013-02-18 04:25:00,27.0,13.4,30.32,WSW,246,0.0,0.0,56,0.00,CLR,,0.00,WeatherDisplay:10.37,2013-02-18 09:25:00,
2013-02-18 04:30:00,27.2,13.6,30.34,WSW,245,0.0,0.0,56,0.00,CLR,,0.00,WeatherDisplay:10.37,2013-02-18 09:30:00,
2013-02-18 04:35:00,27.2,13.6,30.34,WSW,245,0.0,0.0,56,0.00,CLR,,0.00,WeatherDisplay:10.37,2013-02-18 09:35:00,
2013-02-18 04:40:00,27.1,14.3,30.34,WSW,246,0.0,0.0,58,0.00,CLR,,0.00,WeatherDisplay:10.37,2013-02-18 09:40:00,
2013-02-18 04:45:00,27.1,14.3,30.34,WSW,246,0.0,0.0,58,0.00,CLR,,0.00,WeatherDisplay:10.37,2013-02-18 09:45:00,
2013-02-18 04:50:00,27.1,14.3,30.34,WSW,246,0.0,0.0,58,0.00,CLR,,0.00,WeatherDisplay:10.37,2013-02-18 09:50:00,
2013-02-18 04:55:00,27.1,14.3,30.34,WSW,246,0.0,0.0,58,0.00,CLR,,0.00,WeatherDisplay:10.37,2013-02-18 09:55:00,
2013-02-18 05:00:00,27.4,12.9,30.35,WSW,245,0.0,0.0,54,0.00,CLR,,0.00,WeatherDisplay:10.37,2013-02-18 10:00:00,
2013-02-18 05:05:00,27.6,13.1,30.35,WSW,246,0.0,0.0,54,0.00,CLR,,0.00,WeatherDisplay:10.37,2013-02-18 10:05:00,
2013-02-18 05:10:00,27.8,13.3,30.36,WSW,246,0.0,0.0,54,0.00,CLR,,0.00,WeatherDisplay:10.37,2013-02-18 10:10:00,
2013-02-18 05:15:00,27.5,13.0,30.35,WSW,245,0.0,0.0,54,0.00,CLR,,0.00,WeatherDisplay:10.37,2013-02-18 10:15:00,
2013-02-18 05:20:00,27.5,13.0,30.35,WSW,245,0.0,0.0,54,0.00,CLR,,0.00,WeatherDisplay:10.37,2013-02-18 10:20:00,
2013-02-18 05:25:00,27.5,13.0,30.35,WSW,245,0.0,0.0,54,0.00,CLR,,0.00,WeatherDisplay:10.37,2013-02-18 10:25:00,
2013-02-18 05:30:00,28.0,13.5,30.36,WSW,246,0.0,0.0,54,0.00,CLR,,0.00,WeatherDisplay:10.37,2013-02-18 10:30:00,
2013-02-18 05:35:00,28.1,13.1,30.36,WSW,245,0.0,0.0,53,0.00,CLR,,0.00,WeatherDisplay:10.37,2013-02-18 10:35:00,
2013-02-18 05:40:00,28.1,13.1,30.36,WSW,245,0.0,0.0,53,0.00,CLR,,0.00,WeatherDisplay:10.37,2013-02-18 10:40:00,
2013-02-18 05:45:00,28.1,13.1,30.36,WSW,246,0.0,0.0,53,0.00,CLR,,0.00,WeatherDisplay:10.37,2013-02-18 10:45:00,
2013-02-18 05:50:00,28.0,13.5,30.36,WSW,246,0.0,0.0,54,0.00,CLR,,0.00,WeatherDisplay:10.37,2013-02-18 10:50:00,
2013-02-18 05:55:00,28.1,14.4,30.36,WSW,246,0.0,0.0,56,0.00,CLR,,0.00,WeatherDisplay:10.37,2013-02-18 10:55:00,
2013-02-18 06:00:00,28.0,13.5,30.36,WSW,246,0.0,0.0,54,0.00,CLR,,0.00,WeatherDisplay:10.37,2013-02-18 11:00:00,
2013-02-18 06:05:00,27.9,14.6,30.37,WSW,245,0.0,0.0,57,0.00,CLR,,0.00,WeatherDisplay:10.37,2013-02-18 11:05:00,
2013-02-18 06:10:00,28.0,13.5,30.36,WSW,246,0.0,0.0,54,0.00,CLR,,0.00,WeatherDisplay:10.37,2013-02-18 11:10:00,
2013-02-18 06:15:00,28.0,13.5,30.36,WSW,246,0.0,0.0,54,0.00,CLR,,0.00,WeatherDisplay:10.37,2013-02-18 11:15:00,
2013-02-18 06:20:00,28.0,13.5,30.36,WSW,246,0.0,0.0,54,0.00,CLR,,0.00,WeatherDisplay:10.37,2013-02-18 11:20:00,
2013-02-18 06:25:00,26.6,14.2,30.37,WSW,246,0.0,0.0,59,0.00,CLR,,0.00,WeatherDisplay:10.37,2013-02-18 11:25:00,
2013-02-18 06:30:00,28.0,13.5,30.36,WSW,246,0.0,0.0,54,0.00,CLR,,0.00,WeatherDisplay:10.37,2013-02-18 11:30:00,
2013-02-18 06:35:00,26.0,14.4,30.37,WSW,246,0.0,0.0,61,0.00,CLR,,0.00,WeatherDisplay:10.37,2013-02-18 11:35:00,
2013-02-18 06:40:00,25.6,14.4,30.37,WSW,245,0.0,0.0,62,0.00,CLR,,0.00,WeatherDisplay:10.37,2013-02-18 11:40:00,
2013-02-18 06:45:00,25.3,13.7,30.37,WSW,246,0.0,0.0,61,0.00,CLR,,0.00,WeatherDisplay:10.37,2013-02-18 11:45:00,
2013-02-18 06:50:00,25.1,13.9,30.37,WSW,246,0.0,0.0,62,0.00,CLR,,0.00,WeatherDisplay:10.37,2013-02-18 11:50:00,
2013-02-18 06:56:00,24.8,15.4,30.38,WSW,245,0.0,0.0,67,0.00,CLR,,0.00,WeatherDisplay:10.37,2013-02-18 11:56:00,
2013-02-18 07:01:00,25.1,13.9,30.37,WSW,246,0.0,0.0,62,0.00,CLR,,0.00,WeatherDisplay:10.37,2013-02-18 12:01:00,
2013-02-18 07:06:00,24.3,15.3,30.38,WSW,245,0.0,0.0,68,0.00,CLR,,0.00,WeatherDisplay:10.37,2013-02-18 12:06:00,
2013-02-18 07:11:00,24.1,14.4,30.39,WSW,246,0.0,0.0,66,0.00,CLR,,0.00,WeatherDisplay:10.37,2013-02-18 12:11:00,
2013-02-18 07:16:00,24.5,15.8,30.38,WSW,245,0.0,0.0,69,0.00,CLR,,0.00,WeatherDisplay:10.37,2013-02-18 12:16:00,
2013-02-18 07:21:00,23.8,13.7,30.38,WSW,246,0.0,0.0,65,0.00,CLR,,0.00,WeatherDisplay:10.37,2013-02-18 12:21:00,
2013-02-18 07:26:00,23.6,13.5,30.38,WSW,246,0.0,0.0,65,0.00,CLR,,0.00,WeatherDisplay:10.37,2013-02-18 12:26:00,
2013-02-18 07:31:00,24.5,15.8,30.38,WSW,245,0.0,0.0,69,0.00,CLR,,0.00,WeatherDisplay:10.37,2013-02-18 12:31:00,
2013-02-18 07:36:00,23.6,13.9,30.39,WSW,246,0.0,0.0,66,0.00,CLR,,0.00,WeatherDisplay:10.37,2013-02-18 12:36:00,
2013-02-18 07:41:00,24.5,15.8,30.38,WSW,245,0.0,0.0,69,0.00,CLR,,0.00,WeatherDisplay:10.37,2013-02-18 12:41:00,
2013-02-18 07:46:00,24.5,15.8,30.38,WSW,245,0.0,0.0,69,0.00,CLR,,0.00,WeatherDisplay:10.37,2013-02-18 12:46:00,
2013-02-18 07:51:00,23.8,14.1,30.39,WSW,246,0.0,0.0,66,0.00,CLR,,0.00,WeatherDisplay:10.37,2013-02-18 12:51:00,
2013-02-18 07:56:00,24.5,15.8,30.38,WSW,245,0.0,0.0,69,0.00,CLR,,0.00,WeatherDisplay:10.37,2013-02-18 12:56:00,
2013-02-18 08:01:00,24.5,15.8,30.38,WSW,245,0.0,0.0,69,0.00,CLR,,0.00,WeatherDisplay:10.37,2013-02-18 13:01:00,
2013-02-18 08:06:00,24.5,15.1,30.40,WSW,246,0.0,0.0,67,0.00,CLR,,0.00,WeatherDisplay:10.37,2013-02-18 13:06:00,
2013-02-18 08:11:00,24.5,15.8,30.38,WSW,245,0.0,0.0,69,0.00,CLR,,0.00,WeatherDisplay:10.37,2013-02-18 13:11:00,
2013-02-18 08:16:00,25.1,16.4,30.39,WSW,246,0.0,0.0,69,0.00,CLR,,0.00,WeatherDisplay:10.37,2013-02-18 13:16:00,
2013-02-18 08:21:00,26.2,16.7,30.40,North,351,0.0,0.0,67,0.00,CLR,,0.00,WeatherDisplay:10.37,2013-02-18 13:21:00,
2013-02-18 08:26:00,25.1,16.4,30.39,WSW,246,0.0,0.0,69,0.00,CLR,,0.00,WeatherDisplay:10.37,2013-02-18 13:26:00,
2013-02-18 08:31:00,25.1,16.4,30.39,WSW,246,0.0,0.0,69,0.00,CLR,,0.00,WeatherDisplay:10.37,2013-02-18 13:31:00,
2013-02-18 08:36:00,25.1,16.4,30.39,WSW,246,0.0,0.0,69,0.00,CLR,,0.00,WeatherDisplay:10.37,2013-02-18 13:36:00,
2013-02-18 08:41:00,29.9,20.3,30.40,North,351,0.0,0.0,67,0.00,CLR,,0.00,WeatherDisplay:10.37,2013-02-18 13:41:00,
2013-02-18 08:46:00,30.9,20.5,30.40,North,351,0.0,0.0,65,0.00,CLR,,0.00,WeatherDisplay:10.37,2013-02-18 13:46:00,
2013-02-18 08:51:00,32.2,19.1,30.40,North,350,0.0,0.0,58,0.00,CLR,,0.00,WeatherDisplay:10.37,2013-02-18 13:51:00,
2013-02-18 08:56:00,33.4,19.8,30.40,North,351,0.0,0.0,57,0.00,CLR,,0.00,WeatherDisplay:10.37,2013-02-18 13:56:00,
2013-02-18 09:01:00,34.3,19.4,30.40,North,351,0.0,0.0,54,0.00,CLR,,0.00,WeatherDisplay:10.37,2013-02-18 14:01:00,
2013-02-18 09:06:00,25.1,16.4,30.39,WSW,246,0.0,0.0,69,0.00,CLR,,0.00,WeatherDisplay:10.37,2013-02-18 14:06:00,
2013-02-18 09:11:00,25.1,16.4,30.39,WSW,246,0.0,0.0,69,0.00,CLR,,0.00,WeatherDisplay:10.37,2013-02-18 14:11:00,
2013-02-18 09:16:00,36.1,19.2,30.41,NNW,328,0.0,0.0,50,0.00,CLR,,0.00,WeatherDisplay:10.37,2013-02-18 14:16:00,
2013-02-18 09:21:00,36.5,20.1,30.40,NNW,328,0.0,0.0,51,0.00,CLR,,0.00,WeatherDisplay:10.37,2013-02-18 14:21:00,
2013-02-18 09:26:00,37.0,20.5,30.40,NNW,328,0.0,0.0,51,0.00,CLR,,0.00,WeatherDisplay:10.37,2013-02-18 14:26:00,
2013-02-18 09:31:00,25.1,16.4,30.39,WSW,246,0.0,0.0,69,0.00,CLR,,0.00,WeatherDisplay:10.37,2013-02-18 14:31:00,
2013-02-18 09:36:00,25.1,16.4,30.39,WSW,246,0.0,0.0,69,0.00,CLR,,0.00,WeatherDisplay:10.37,2013-02-18 14:36:00,
2013-02-18 09:41:00,38.7,19.7,30.40,WSW,244,3.5,3.5,46,0.00,CLR,,0.00,WeatherDisplay:10.37,2013-02-18 14:41:00,
2013-02-18 09:46:00,39.2,19.1,30.40,SE,132,4.0,4.0,44,0.00,CLR,,0.00,WeatherDisplay:10.37,2013-02-18 14:46:00,
2013-02-18 09:51:00,39.9,19.7,30.40,South,187,4.6,4.6,44,0.00,CLR,,0.00,WeatherDisplay:10.37,2013-02-18 14:51:00,
2013-02-18 09:56:00,25.1,16.4,30.39,WSW,246,0.0,0.0,69,0.00,CLR,,0.00,WeatherDisplay:10.37,2013-02-18 14:56:00,
2013-02-18 10:01:00,40.8,20.5,30.40,SW,223,3.5,3.5,44,0.00,CLR,,0.00,WeatherDisplay:10.37,2013-02-18 15:01:00,
2013-02-18 10:06:00,40.9,20.6,30.40,SW,227,4.6,4.6,44,0.00,CLR,,0.00,WeatherDisplay:10.37,2013-02-18 15:06:00,
2013-02-18 10:11:00,41.0,21.3,30.40,SW,234,4.6,4.6,45,0.00,CLR,,0.00,WeatherDisplay:10.37,2013-02-18 15:11:00,
2013-02-18 10:16:00,41.0,20.7,30.40,South,187,3.5,3.5,44,0.00,CLR,,0.00,WeatherDisplay:10.37,2013-02-18 15:16:00,
2013-02-18 10:21:00,41.9,21.5,30.40,South,172,4.0,4.0,44,0.00,CLR,,0.00,WeatherDisplay:10.37,2013-02-18 15:21:00,
2013-02-18 10:26:00,42.5,22.1,30.40,WSW,250,6.9,6.9,44,0.00,CLR,,0.00,WeatherDisplay:10.37,2013-02-18 15:26:00,
2013-02-18 10:31:00,42.9,21.9,30.40,SW,234,5.0,5.0,43,0.00,CLR,,0.00,WeatherDisplay:10.37,2013-02-18 15:31:00,
2013-02-18 10:36:00,43.4,21.2,30.40,South,171,4.6,4.6,41,0.00,CLR,,0.00,WeatherDisplay:10.37,2013-02-18 15:36:00,
2013-02-18 10:41:00,44.1,21.3,30.40,South,186,6.0,6.0,40,0.00,CLR,,0.00,WeatherDisplay:10.37,2013-02-18 15:41:00,
2013-02-18 10:46:00,44.0,23.5,30.40,South,183,1.2,2.8,44,0.00,CLR,,0.00,WeatherDisplay:10.37,2013-02-18 15:46:00,
2013-02-18 10:51:00,44.0,23.5,30.40,South,183,1.2,2.8,44,0.00,CLR,,0.00,WeatherDisplay:10.37,2013-02-18 15:51:00,
2013-02-18 10:56:00,45.0,22.7,30.40,SW,225,4.6,4.6,41,0.00,CLR,,0.00,WeatherDisplay:10.37,2013-02-18 15:56:00,
2013-02-18 11:01:00,44.0,23.5,30.40,South,183,1.2,2.8,44,0.00,CLR,,0.00,WeatherDisplay:10.37,2013-02-18 16:01:00,
2013-02-18 11:06:00,44.0,23.5,30.40,South,183,1.2,2.8,44,0.00,CLR,,0.00,WeatherDisplay:10.37,2013-02-18 16:06:00,
2013-02-18 11:11:00,45.0,22.1,30.40,SSE,163,3.5,3.5,40,0.00,CLR,,0.00,WeatherDisplay:10.37,2013-02-18 16:11:00,
2013-02-18 11:17:00,45.0,22.1,30.40,SSE,163,3.5,3.5,40,0.00,CLR,,0.00,WeatherDisplay:10.37,2013-02-18 16:17:00,
2013-02-18 11:22:00,46.0,23.0,30.39,South,189,6.9,6.9,40,0.00,CLR,,0.00,WeatherDisplay:10.37,2013-02-18 16:22:00,
2013-02-18 11:27:00,45.0,22.1,30.40,SSE,163,3.5,3.5,40,0.00,CLR,,0.00,WeatherDisplay:10.37,2013-02-18 16:27:00,
2013-02-18 11:32:00,46.3,24.4,30.39,SE,144,3.5,3.5,42,0.00,CLR,,0.00,WeatherDisplay:10.37,2013-02-18 16:32:00,
2013-02-18 11:37:00,46.2,22.6,30.39,ESE,115,2.3,2.4,39,0.00,CLR,,0.00,WeatherDisplay:10.37,2013-02-18 16:37:00,
2013-02-18 11:42:00,47.0,23.3,30.39,WSW,250,11.5,11.5,39,0.00,CLR,,0.00,WeatherDisplay:10.37,2013-02-18 16:42:00,
2013-02-18 11:47:00,47.1,22.8,30.39,SSE,161,9.2,9.2,38,0.00,CLR,,0.00,WeatherDisplay:10.37,2013-02-18 16:47:00,
2013-02-18 11:52:00,47.3,24.2,30.38,SSE,168,4.6,4.6,40,0.00,CLR,,0.00,WeatherDisplay:10.37,2013-02-18 16:52:00,
2013-02-18 11:57:00,47.7,23.3,30.38,SSE,166,5.8,5.8,38,0.00,CLR,,0.00,WeatherDisplay:10.37,2013-02-18 16:57:00,
2013-02-18 12:02:00,46.7,23.6,30.39,SW,229,8.1,8.1,40,0.00,CLR,,0.00,WeatherDisplay:10.37,2013-02-18 17:02:00,
2013-02-18 12:07:00,46.7,23.6,30.39,SW,229,8.1,8.1,40,0.00,CLR,,0.00,WeatherDisplay:10.37,2013-02-18 17:07:00,
2013-02-18 12:12:00,46.7,23.6,30.39,SW,229,8.1,8.1,40,0.00,CLR,,0.00,WeatherDisplay:10.37,2013-02-18 17:12:00,
2013-02-18 12:17:00,48.7,25.4,30.37,SSW,206,2.3,4.7,40,0.00,CLR,,0.00,WeatherDisplay:10.37,2013-02-18 17:17:00,
2013-02-18 12:22:00,48.8,25.5,30.36,South,176,6.9,6.9,40,0.00,CLR,,0.00,WeatherDisplay:10.37,2013-02-18 17:22:00,
2013-02-18 12:27:00,48.7,25.4,30.37,SSW,206,2.3,4.7,40,0.00,CLR,,0.00,WeatherDisplay:10.37,2013-02-18 17:27:00,
2013-02-18 12:32:00,48.7,25.4,30.37,SSW,206,2.3,4.7,40,0.00,CLR,,0.00,WeatherDisplay:10.37,2013-02-18 17:32:00,
2013-02-18 12:37:00,49.5,25.5,30.36,NW,310,3.5,3.5,39,0.00,CLR,,0.00,WeatherDisplay:10.37,2013-02-18 17:37:00,
2013-02-18 12:42:00,50.0,26.6,30.35,SE,129,9.2,9.2,40,0.00,CLR,,0.00,WeatherDisplay:10.37,2013-02-18 17:42:00,
2013-02-18 12:47:00,50.1,26.7,30.35,South,182,5.8,5.8,40,0.00,CLR,,0.00,WeatherDisplay:10.37,2013-02-18 17:47:00,
2013-02-18 12:52:00,50.8,27.9,30.35,SSE,159,8.0,8.0,41,0.00,CLR,,0.00,WeatherDisplay:10.37,2013-02-18 17:52:00,
2013-02-18 12:57:00,50.1,26.7,30.35,South,182,5.8,5.8,40,0.00,CLR,,0.00,WeatherDisplay:10.37,2013-02-18 17:57:00,
2013-02-18 13:02:00,50.1,26.7,30.35,South,182,5.8,5.8,40,0.00,CLR,,0.00,WeatherDisplay:10.37,2013-02-18 18:02:00,
2013-02-18 13:07:00,50.1,26.7,30.35,South,182,5.8,5.8,40,0.00,CLR,,0.00,WeatherDisplay:10.37,2013-02-18 18:07:00,
2013-02-18 13:12:00,50.1,26.7,30.35,South,182,5.8,5.8,40,0.00,CLR,,0.00,WeatherDisplay:10.37,2013-02-18 18:12:00,
2013-02-18 13:17:00,50.1,26.7,30.35,South,182,5.8,5.8,40,0.00,CLR,,0.00,WeatherDisplay:10.37,2013-02-18 18:17:00,
2013-02-18 13:22:00,51.3,26.5,30.33,SSW,204,9.2,9.2,38,0.00,CLR,,0.00,WeatherDisplay:10.37,2013-02-18 18:22:00,
2013-02-18 13:27:00,52.1,29.1,30.33,SW,214,8.1,8.1,41,0.00,CLR,,0.00,WeatherDisplay:10.37,2013-02-18 18:27:00,
2013-02-18 13:32:00,52.4,28.1,30.32,SSE,155,4.6,5.0,39,0.00,CLR,,0.00,WeatherDisplay:10.37,2013-02-18 18:32:00,
2013-02-18 13:37:00,52.4,28.1,30.32,SSE,155,4.6,5.0,39,0.00,CLR,,0.00,WeatherDisplay:10.37,2013-02-18 18:37:00,
2013-02-18 13:42:00,52.2,28.0,30.32,SW,222,10.4,10.4,39,0.00,CLR,,0.00,WeatherDisplay:10.37,2013-02-18 18:42:00,
2013-02-18 13:47:00,52.3,27.4,30.32,WSW,245,12.0,12.0,38,0.00,CLR,,0.00,WeatherDisplay:10.37,2013-02-18 18:47:00,
2013-02-18 13:52:00,52.3,26.8,30.32,SSW,211,11.5,11.5,37,0.00,CLR,,0.00,WeatherDisplay:10.37,2013-02-18 18:52:00,
2013-02-18 13:57:00,52.7,27.8,30.32,SW,218,6.9,6.9,38,0.00,CLR,,0.00,WeatherDisplay:10.37,2013-02-18 18:57:00,
2013-02-18 14:02:00,52.4,27.5,30.32,SSW,197,2.3,3.4,38,0.00,CLR,,0.00,WeatherDisplay:10.37,2013-02-18 19:02:00,
2013-02-18 14:07:00,52.9,28.0,30.31,WSW,255,11.5,11.5,38,0.00,CLR,,0.00,WeatherDisplay:10.37,2013-02-18 19:07:00,
2013-02-18 14:12:00,52.7,28.4,30.31,WSW,241,12.7,12.7,39,0.00,CLR,,0.00,WeatherDisplay:10.37,2013-02-18 19:12:00,
2013-02-18 14:17:00,52.8,28.5,30.31,WSW,241,5.8,5.8,39,0.00,CLR,,0.00,WeatherDisplay:10.37,2013-02-18 19:17:00,
2013-02-18 14:22:00,52.8,28.5,30.31,WSW,241,5.8,5.8,39,0.00,CLR,,0.00,WeatherDisplay:10.37,2013-02-18 19:22:00,
2013-02-18 14:27:00,52.8,28.5,30.31,WSW,241,5.8,5.8,39,0.00,CLR,,0.00,WeatherDisplay:10.37,2013-02-18 19:27:00,
2013-02-18 14:32:00,52.8,28.5,30.31,WSW,241,5.8,5.8,39,0.00,CLR,,0.00,WeatherDisplay:10.37,2013-02-18 19:32:00,
2013-02-18 14:38:00,52.7,27.8,30.30,SSW,196,10.4,10.4,38,0.00,CLR,,0.00,WeatherDisplay:10.37,2013-02-18 19:38:00,
2013-02-18 14:43:00,52.8,28.5,30.31,WSW,241,5.8,5.8,39,0.00,CLR,,0.00,WeatherDisplay:10.37,2013-02-18 19:43:00,
2013-02-18 14:48:00,52.8,28.5,30.31,WSW,241,5.8,5.8,39,0.00,CLR,,0.00,WeatherDisplay:10.37,2013-02-18 19:48:00,
2013-02-18 14:53:00,52.8,28.5,30.31,WSW,241,5.8,5.8,39,0.00,CLR,,0.00,WeatherDisplay:10.37,2013-02-18 19:53:00,
2013-02-18 14:58:00,53.1,29.4,30.30,WSW,241,5.8,5.8,40,0.00,CLR,,0.00,WeatherDisplay:10.37,2013-02-18 19:58:00,
2013-02-18 15:03:00,53.3,27.7,30.30,South,188,10.4,10.4,37,0.00,CLR,,0.00,WeatherDisplay:10.37,2013-02-18 20:03:00,
2013-02-18 15:08:00,52.8,28.5,30.31,WSW,241,5.8,5.8,39,0.00,CLR,,0.00,WeatherDisplay:10.37,2013-02-18 20:08:00,
2013-02-18 15:13:00,52.8,28.5,30.31,WSW,241,5.8,5.8,39,0.00,CLR,,0.00,WeatherDisplay:10.37,2013-02-18 20:13:00,
2013-02-18 15:18:00,53.4,29.0,30.29,WSW,239,10.4,10.4,39,0.00,CLR,,0.00,WeatherDisplay:10.37,2013-02-18 20:18:00,
2013-02-18 15:23:00,53.4,28.4,30.29,South,172,9.2,9.2,38,0.00,CLR,,0.00,WeatherDisplay:10.37,2013-02-18 20:23:00,
2013-02-18 15:28:00,53.3,28.3,30.29,SW,229,12.7,12.7,38,0.00,CLR,,0.00,WeatherDisplay:10.37,2013-02-18 20:28:00,
2013-02-18 15:33:00,53.3,28.9,30.28,WSW,244,10.4,10.4,39,0.00,CLR,,0.00,WeatherDisplay:10.37,2013-02-18 20:33:00,
2013-02-18 15:38:00,53.3,28.9,30.28,West,262,12.7,12.7,39,0.00,CLR,,0.00,WeatherDisplay:10.37,2013-02-18 20:38:00,
2013-02-18 15:43:00,53.3,28.9,30.28,WSW,244,9.2,9.2,39,0.00,CLR,,0.00,WeatherDisplay:10.37,2013-02-18 20:43:00,
2013-02-18 15:48:00,53.3,30.2,30.28,SW,217,2.3,2.3,41,0.00,CLR,,0.00,WeatherDisplay:10.37,2013-02-18 20:48:00,
2013-02-18 15:53:00,53.6,29.8,30.28,WNW,294,5.0,5.0,40,0.00,CLR,,0.00,WeatherDisplay:10.37,2013-02-18 20:53:00,
2013-02-18 15:58:00,53.3,30.2,30.28,SW,217,2.3,2.3,41,0.00,CLR,,0.00,WeatherDisplay:10.37,2013-02-18 20:58:00,
2013-02-18 16:03:00,53.8,30.6,30.28,SW,235,10.4,10.4,41,0.00,CLR,,0.00,WeatherDisplay:10.37,2013-02-18 21:03:00,
2013-02-18 16:09:00,53.6,29.2,30.28,WSW,257,4.6,4.6,39,0.00,CLR,,0.00,WeatherDisplay:10.37,2013-02-18 21:09:00,
2013-02-18 16:14:00,53.5,29.1,30.28,WSW,246,6.0,6.0,39,0.00,CLR,,0.00,WeatherDisplay:10.37,2013-02-18 21:14:00,
2013-02-18 16:19:00,53.5,29.7,30.28,South,182,5.8,5.8,40,0.00,CLR,,0.00,WeatherDisplay:10.37,2013-02-18 21:19:00,
2013-02-18 16:24:00,53.5,29.1,30.28,South,182,3.5,3.5,39,0.00,CLR,,0.00,WeatherDisplay:10.37,2013-02-18 21:24:00,
2013-02-18 16:29:00,53.5,29.1,30.28,South,182,3.5,3.5,39,0.00,CLR,,0.00,WeatherDisplay:10.37,2013-02-18 21:29:00,
2013-02-18 16:34:00,53.9,30.7,30.28,SSW,199,3.5,3.5,41,0.00,CLR,,0.00,WeatherDisplay:10.37,2013-02-18 21:34:00,
2013-02-18 16:39:00,54.1,30.3,30.28,NW,312,3.5,3.5,40,0.00,CLR,,0.00,WeatherDisplay:10.37,2013-02-18 21:39:00,
2013-02-18 16:44:00,54.1,29.7,30.28,South,184,4.6,4.6,39,0.00,CLR,,0.00,WeatherDisplay:10.37,2013-02-18 21:44:00,
2013-02-18 16:49:00,53.5,29.1,30.28,South,182,3.5,3.5,39,0.00,CLR,,0.00,WeatherDisplay:10.37,2013-02-18 21:49:00,
2013-02-18 16:55:00,53.5,29.1,30.28,South,182,3.5,3.5,39,0.00,CLR,,0.00,WeatherDisplay:10.37,2013-02-18 21:55:00,
2013-02-18 17:00:00,53.5,29.1,30.28,South,182,3.5,3.5,39,0.00,CLR,,0.00,WeatherDisplay:10.37,2013-02-18 22:00:00,
2013-02-18 17:05:00,53.1,29.4,30.27,SSW,192,2.0,2.0,40,0.00,CLR,,0.00,WeatherDisplay:10.37,2013-02-18 22:05:00,
2013-02-18 17:10:00,52.9,29.2,30.28,SSW,206,2.3,2.3,40,0.00,CLR,,0.00,WeatherDisplay:10.37,2013-02-18 22:10:00,
2013-02-18 17:15:00,52.6,29.5,30.27,SSW,195,3.5,0.0,41,0.00,CLR,,0.00,WeatherDisplay:10.37,2013-02-18 22:15:00,
2013-02-18 17:20:00,52.8,29.1,30.28,SSW,202,2.3,3.0,40,0.00,CLR,,0.00,WeatherDisplay:10.37,2013-02-18 22:20:00,
2013-02-18 17:25:00,52.1,29.7,30.28,SSW,200,0.0,0.4,42,0.00,CLR,,0.00,WeatherDisplay:10.37,2013-02-18 22:25:00,
2013-02-18 17:30:00,51.8,29.4,30.28,SSW,205,3.5,3.5,42,0.00,CLR,,0.00,WeatherDisplay:10.37,2013-02-18 22:30:00,
2013-02-18 17:35:00,51.8,29.4,30.28,SSE,159,0.0,0.0,42,0.00,CLR,,0.00,WeatherDisplay:10.37,2013-02-18 22:35:00,
2013-02-18 17:40:00,51.8,29.4,30.28,SSE,159,0.0,0.0,42,0.00,CLR,,0.00,WeatherDisplay:10.37,2013-02-18 22:40:00,
2013-02-18 17:45:00,51.5,28.6,30.28,SSE,159,3.5,3.5,41,0.00,CLR,,0.00,WeatherDisplay:10.37,2013-02-18 22:45:00,
2013-02-18 17:50:00,51.3,29.0,30.27,SSE,153,3.5,3.5,42,0.00,CLR,,0.00,WeatherDisplay:10.37,2013-02-18 22:50:00,
2013-02-18 17:55:00,51.2,28.9,30.27,SSE,157,2.3,2.3,42,0.00,CLR,,0.00,WeatherDisplay:10.37,2013-02-18 22:55:00,
2013-02-18 18:00:00,50.7,29.6,30.27,SSW,192,4.0,4.0,44,0.00,CLR,,0.00,WeatherDisplay:10.37,2013-02-18 23:00:00,
2013-02-18 18:05:00,50.4,29.3,30.27,SSW,199,2.3,2.3,44,0.00,CLR,,0.00,WeatherDisplay:10.37,2013-02-18 23:05:00,
2013-02-18 18:10:00,51.2,28.9,30.27,SSE,157,2.3,2.3,42,0.00,CLR,,0.00,WeatherDisplay:10.37,2013-02-18 23:10:00,
2013-02-18 18:15:00,49.6,29.1,30.27,South,179,0.0,0.0,45,0.00,CLR,,0.00,WeatherDisplay:10.37,2013-02-18 23:15:00,
2013-02-18 18:20:00,49.2,28.7,30.27,SE,126,3.5,3.5,45,0.00,CLR,,0.00,WeatherDisplay:10.37,2013-02-18 23:20:00,
2013-02-18 18:25:00,48.9,29.0,30.27,SE,141,3.5,3.5,46,0.00,CLR,,0.00,WeatherDisplay:10.37,2013-02-18 23:25:00,
2013-02-18 18:30:00,48.6,28.7,30.27,SSE,153,0.0,0.0,46,0.00,CLR,,0.00,WeatherDisplay:10.37,2013-02-18 23:30:00,
2013-02-18 18:35:00,48.2,29.9,30.27,SW,221,3.5,3.5,49,0.00,CLR,,0.00,WeatherDisplay:10.37,2013-02-18 23:35:00,
2013-02-18 18:40:00,47.8,28.5,30.27,SSW,194,1.2,1.2,47,0.00,CLR,,0.00,WeatherDisplay:10.37,2013-02-18 23:40:00,
2013-02-18 18:45:00,48.3,29.0,30.27,SSE,158,0.0,0.4,47,0.00,CLR,,0.00,WeatherDisplay:10.37,2013-02-18 23:45:00,
2013-02-18 18:50:00,47.3,28.6,30.27,South,175,3.5,3.5,48,0.00,CLR,,0.00,WeatherDisplay:10.37,2013-02-18 23:50:00,
2013-02-18 18:55:00,47.0,28.8,30.27,South,177,0.0,0.1,49,0.00,CLR,,0.00,WeatherDisplay:10.37,2013-02-18 23:55:00,
2013-02-18 19:00:00,46.7,28.5,30.27,South,177,1.2,0.0,49,0.00,CLR,,0.00,WeatherDisplay:10.37,2013-02-19 00:00:00,
2013-02-18 19:05:00,46.4,28.8,30.27,South,191,2.0,2.0,50,0.00,CLR,,0.00,WeatherDisplay:10.37,2013-02-19 00:05:00,
2013-02-18 19:10:00,46.1,28.5,30.27,South,190,5.8,5.8,50,0.00,CLR,,0.00,WeatherDisplay:10.37,2013-02-19 00:10:00,
2013-02-18 19:15:00,46.1,28.5,30.27,South,190,3.5,3.5,50,0.00,CLR,,0.00,WeatherDisplay:10.37,2013-02-19 00:15:00,
2013-02-18 19:20:00,45.8,28.7,30.27,SE,142,0.0,0.1,51,0.00,CLR,,0.00,WeatherDisplay:10.37,2013-02-19 00:20:00,
2013-02-18 19:25:00,45.7,28.6,30.27,SE,142,0.0,0.0,51,0.00,CLR,,0.00,WeatherDisplay:10.37,2013-02-19 00:25:00,
2013-02-18 19:30:00,45.4,28.3,30.27,SSE,164,3.5,3.5,51,0.00,CLR,,0.00,WeatherDisplay:10.37,2013-02-19 00:30:00,
2013-02-18 19:35:00,45.2,28.1,30.27,SE,140,0.0,0.0,51,0.00,CLR,,0.00,WeatherDisplay:10.37,2013-02-19 00:35:00,
2013-02-18 19:40:00,45.7,28.6,30.27,SE,142,0.0,0.0,51,0.00,CLR,,0.00,WeatherDisplay:10.37,2013-02-19 00:40:00,
2013-02-18 19:45:00,45.7,28.6,30.27,SE,142,0.0,0.0,51,0.00,CLR,,0.00,WeatherDisplay:10.37,2013-02-19 00:45:00,
2013-02-18 19:50:00,45.0,28.4,30.27,SSE,163,3.5,3.5,52,0.00,CLR,,0.00,WeatherDisplay:10.37,2013-02-19 00:50:00,
2013-02-18 19:55:00,44.8,28.2,30.26,SSE,160,2.0,2.0,52,0.00,CLR,,0.00,WeatherDisplay:10.37,2013-02-19 00:55:00,
2013-02-18 20:00:00,45.7,28.6,30.27,SE,142,0.0,0.0,51,0.00,CLR,,0.00,WeatherDisplay:10.37,2013-02-19 01:00:00,
2013-02-18 20:05:00,45.7,28.6,30.27,SE,142,0.0,0.0,51,0.00,CLR,,0.00,WeatherDisplay:10.37,2013-02-19 01:05:00,
2013-02-18 20:10:00,44.6,28.5,30.26,South,176,2.3,2.3,53,0.00,CLR,,0.00,WeatherDisplay:10.37,2013-02-19 01:10:00,
2013-02-18 20:15:00,44.6,28.0,30.26,ESE,121,1.2,0.0,52,0.00,CLR,,0.00,WeatherDisplay:10.37,2013-02-19 01:15:00,
2013-02-18 20:20:00,44.6,28.0,30.26,SW,230,3.5,3.5,52,0.00,CLR,,0.00,WeatherDisplay:10.37,2013-02-19 01:20:00,
2013-02-18 20:25:00,44.5,28.4,30.25,SSW,203,2.3,2.3,53,0.00,CLR,,0.00,WeatherDisplay:10.37,2013-02-19 01:25:00,
2013-02-18 20:30:00,44.5,28.4,30.25,ESE,118,3.5,3.5,53,0.00,CLR,,0.00,WeatherDisplay:10.37,2013-02-19 01:30:00,
2013-02-18 20:35:00,44.4,28.3,30.25,SSW,211,3.5,3.5,53,0.00,CLR,,0.00,WeatherDisplay:10.37,2013-02-19 01:35:00,
2013-02-18 20:40:00,44.5,28.4,30.25,SW,221,0.0,1.0,53,0.00,CLR,,0.00,WeatherDisplay:10.37,2013-02-19 01:40:00,
2013-02-18 20:45:00,44.5,28.4,30.25,SSW,205,4.6,4.6,53,0.00,CLR,,0.00,WeatherDisplay:10.37,2013-02-19 01:45:00,
2013-02-18 20:50:00,44.5,28.4,30.25,SSW,205,4.6,4.6,53,0.00,CLR,,0.00,WeatherDisplay:10.37,2013-02-19 01:50:00,
2013-02-18 20:55:00,44.5,28.4,30.25,SSW,205,4.6,4.6,53,0.00,CLR,,0.00,WeatherDisplay:10.37,2013-02-19 01:55:00,
2013-02-18 21:00:00,44.5,28.4,30.25,SSW,205,4.6,4.6,53,0.00,CLR,,0.00,WeatherDisplay:10.37,2013-02-19 02:00:00,
2013-02-18 21:06:00,44.5,28.4,30.25,SSE,158,5.8,5.8,53,0.00,CLR,,0.00,WeatherDisplay:10.37,2013-02-19 02:06:00,
2013-02-18 21:11:00,44.5,28.4,30.25,SSW,205,4.6,4.6,53,0.00,CLR,,0.00,WeatherDisplay:10.37,2013-02-19 02:11:00,
2013-02-18 21:16:00,44.3,28.2,30.25,SSE,149,4.0,4.0,53,0.00,CLR,,0.00,WeatherDisplay:10.37,2013-02-19 02:16:00,
2013-02-18 21:21:00,44.2,28.6,30.25,SE,142,2.3,2.3,54,0.00,CLR,,0.00,WeatherDisplay:10.37,2013-02-19 02:21:00,
2013-02-18 21:26:00,44.0,28.4,30.24,SSE,167,3.5,3.5,54,0.00,CLR,,0.00,WeatherDisplay:10.37,2013-02-19 02:26:00,
2013-02-18 21:31:00,43.9,28.8,30.25,SE,134,0.0,0.1,55,0.00,CLR,,0.00,WeatherDisplay:10.37,2013-02-19 02:31:00,
2013-02-18 21:36:00,43.8,28.7,30.25,SSE,151,0.0,0.4,55,0.00,CLR,,0.00,WeatherDisplay:10.37,2013-02-19 02:36:00,
2013-02-18 21:41:00,43.8,28.7,30.25,SSE,151,2.3,2.3,55,0.00,CLR,,0.00,WeatherDisplay:10.37,2013-02-19 02:41:00,
2013-02-18 21:46:00,43.8,28.7,30.25,SSE,151,2.3,2.3,55,0.00,CLR,,0.00,WeatherDisplay:10.37,2013-02-19 02:46:00,
2013-02-18 21:51:00,43.8,28.7,30.25,SSE,151,2.3,2.3,55,0.00,CLR,,0.00,WeatherDisplay:10.37,2013-02-19 02:51:00,
2013-02-18 21:56:00,43.8,28.7,30.25,SSE,151,2.3,2.3,55,0.00,CLR,,0.00,WeatherDisplay:10.37,2013-02-19 02:56:00,
2013-02-18 22:01:00,43.1,28.0,30.25,ESE,107,0.0,0.0,55,0.00,CLR,,0.00,WeatherDisplay:10.37,2013-02-19 03:01:00,
2013-02-18 22:06:00,43.1,28.0,30.25,ESE,107,0.0,0.0,55,0.00,CLR,,0.00,WeatherDisplay:10.37,2013-02-19 03:06:00,
2013-02-18 22:12:00,43.1,28.0,30.25,ESE,107,0.0,0.0,55,0.00,CLR,,0.00,WeatherDisplay:10.37,2013-02-19 03:12:00,
2013-02-18 22:17:00,43.1,28.0,30.25,ESE,107,0.0,0.0,55,0.00,CLR,,0.00,WeatherDisplay:10.37,2013-02-19 03:17:00,
2013-02-18 22:22:00,43.1,28.0,30.25,ESE,107,0.0,0.0,55,0.00,CLR,,0.00,WeatherDisplay:10.37,2013-02-19 03:22:00,
2013-02-18 22:27:00,43.1,28.0,30.25,ESE,107,0.0,0.0,55,0.00,CLR,,0.00,WeatherDisplay:10.37,2013-02-19 03:27:00,
2013-02-18 22:32:00,41.8,28.1,30.24,SSE,167,0.0,0.0,58,0.00,CLR,,0.00,WeatherDisplay:10.37,2013-02-19 03:32:00,
2013-02-18 22:37:00,43.1,28.0,30.25,ESE,107,0.0,0.0,55,0.00,CLR,,0.00,WeatherDisplay:10.37,2013-02-19 03:37:00,
2013-02-18 22:42:00,41.5,28.2,30.24,SSE,157,0.0,0.0,59,0.00,CLR,,0.00,WeatherDisplay:10.37,2013-02-19 03:42:00,
2013-02-18 22:47:00,43.1,28.0,30.25,ESE,107,0.0,0.0,55,0.00,CLR,,0.00,WeatherDisplay:10.37,2013-02-19 03:47:00,
2013-02-18 22:52:00,41.1,27.9,30.23,South,186,2.3,2.3,59,0.00,CLR,,0.00,WeatherDisplay:10.37,2013-02-19 03:52:00,
2013-02-18 22:57:00,41.1,27.9,30.23,South,171,3.5,3.5,59,0.00,CLR,,0.00,WeatherDisplay:10.37,2013-02-19 03:57:00,
2013-02-18 23:03:00,41.2,27.9,30.22,SSE,149,5.0,5.0,59,0.00,CLR,,0.00,WeatherDisplay:10.37,2013-02-19 04:03:00,
2013-02-18 23:08:00,41.2,27.9,30.22,SE,146,3.5,3.5,59,0.00,CLR,,0.00,WeatherDisplay:10.37,2013-02-19 04:08:00,
2013-02-18 23:13:00,41.3,28.4,30.21,SE,124,1.2,0.0,60,0.00,CLR,,0.00,WeatherDisplay:10.37,2013-02-19 04:13:00,
2013-02-18 23:18:00,41.5,28.2,30.21,South,179,11.5,11.5,59,0.00,CLR,,0.00,WeatherDisplay:10.37,2013-02-19 04:18:00,
2013-02-18 23:23:00,41.2,27.9,30.22,SE,146,3.5,3.5,59,0.00,CLR,,0.00,WeatherDisplay:10.37,2013-02-19 04:23:00,
2013-02-18 23:28:00,41.7,28.0,30.22,South,186,6.0,6.0,58,0.00,CLR,,0.00,WeatherDisplay:10.37,2013-02-19 04:28:00,
2013-02-18 23:33:00,41.7,28.0,30.22,SSE,159,3.5,3.5,58,0.00,CLR,,0.00,WeatherDisplay:10.37,2013-02-19 04:33:00,
2013-02-18 23:38:00,41.7,28.4,30.23,SSE,147,4.0,4.0,59,0.00,CLR,,0.00,WeatherDisplay:10.37,2013-02-19 04:38:00,
2013-02-18 23:43:00,41.6,27.9,30.23,SSE,158,9.0,9.0,58,0.00,CLR,,0.00,WeatherDisplay:10.37,2013-02-19 04:43:00,
2013-02-18 23:48:00,41.5,27.8,30.23,South,169,4.6,4.6,58,0.00,CLR,,0.00,WeatherDisplay:10.37,2013-02-19 04:48:00,
2013-02-18 23:53:00,41.5,28.2,30.22,SW,228,0.0,0.4,59,0.00,CLR,,0.00,WeatherDisplay:10.37,2013-02-19 04:53:00,
2013-02-18 23:58:00,41.2,27.9,30.23,South,176,3.5,3.5,59,0.00,CLR,,0.00,WeatherDisplay:10.37,2013-02-19 04:58:00,